User: anonymous   Login
Location: Unspecified
(0.0000°N, 0.0000°E)
Time: 21:20:01
(UTC+00:00)
Language:

Geosat - Orbit

View from above orbital plane
View from above orbital plane
View from above satellite
View from above satellite

Ground track
Ground track

The orbit data is extracted from the following two-line orbital elements,

1 15595U 85021A   17141.78531954 -.00000074 +00000-0 +20179-4 0  9992
2 15595 108.0418 041.0908 0001168 287.1636 114.1690 14.38021907686580
Epoch (UTC): 21 May 2017 18:50:51
Eccentricity: 0.0001168
inclination: 108.0418°
perigee height: 764 km
apogee height: 766 km
right ascension of ascending node: 41.0908°
argument of perigee: 287.1636°
revolutions per day: 14.38021907
mean anomaly at epoch: 114.1690°
orbit number at epoch: 68658

The dashed part of the orbit path shows where the satellite is in the earth's shadow,  

DLR